Year,Month,Day,Hour,Minute,Value (Times are PST for temperature in C)
2016,08,14,00,00,20.10
2016,08,14,00,01,20.10
2016,08,14,00,02,20.10
2016,08,14,00,03,20.10
2016,08,14,00,04,20.10
2016,08,14,00,05,20.00
2016,08,14,00,06,20.00
2016,08,14,00,07,20.00
2016,08,14,00,08,20.00
2016,08,14,00,09,20.00
2016,08,14,00,10,20.00
2016,08,14,00,11,20.00
2016,08,14,00,12,20.00
2016,08,14,00,13,20.00
2016,08,14,00,14,20.00
2016,08,14,00,15,20.00
2016,08,14,00,16,20.00
2016,08,14,00,17,20.00
2016,08,14,00,18,19.90
2016,08,14,00,19,19.90
2016,08,14,00,20,19.90
2016,08,14,00,21,19.90
2016,08,14,00,22,19.80
2016,08,14,00,23,19.80
2016,08,14,00,24,19.80
2016,08,14,00,25,19.80
2016,08,14,00,26,19.80
2016,08,14,00,27,19.80
2016,08,14,00,28,19.70
2016,08,14,00,29,19.70
2016,08,14,00,30,19.70
2016,08,14,00,31,19.70
2016,08,14,00,32,19.60
2016,08,14,00,33,19.60
2016,08,14,00,34,19.60
2016,08,14,00,35,19.60
2016,08,14,00,36,19.60
2016,08,14,00,37,19.60
2016,08,14,00,38,19.60
2016,08,14,00,39,19.60
2016,08,14,00,40,19.60
2016,08,14,00,41,19.60
2016,08,14,00,42,19.60
2016,08,14,00,43,19.60
2016,08,14,00,44,19.70
2016,08,14,00,45,19.60
2016,08,14,00,46,19.60
2016,08,14,00,47,19.60
2016,08,14,00,48,19.70
2016,08,14,00,49,19.70
2016,08,14,00,50,19.70
2016,08,14,00,51,19.70
2016,08,14,00,52,19.70
2016,08,14,00,53,19.70
2016,08,14,00,54,19.70
2016,08,14,00,55,19.70
2016,08,14,00,56,19.60
2016,08,14,00,57,19.60
2016,08,14,00,58,19.60
2016,08,14,00,59,19.60
2016,08,14,01,00,19.50
2016,08,14,01,01,19.50
2016,08,14,01,02,19.50
2016,08,14,01,03,19.50
2016,08,14,01,04,19.40
2016,08,14,01,05,19.40
2016,08,14,01,06,19.40
2016,08,14,01,07,19.40
2016,08,14,01,08,19.40
2016,08,14,01,09,19.40
2016,08,14,01,10,19.40
2016,08,14,01,11,19.40
2016,08,14,01,12,19.40
2016,08,14,01,13,19.30
2016,08,14,01,14,19.30
2016,08,14,01,15,19.30
2016,08,14,01,16,19.30
2016,08,14,01,17,19.30
2016,08,14,01,18,19.30
2016,08,14,01,19,19.30
2016,08,14,01,20,19.30
2016,08,14,01,21,19.30
2016,08,14,01,22,19.40
2016,08,14,01,23,19.40
2016,08,14,01,24,19.40
2016,08,14,01,25,19.40
2016,08,14,01,26,19.40
2016,08,14,01,27,19.50
2016,08,14,01,28,19.50
2016,08,14,01,29,19.50
2016,08,14,01,30,19.60
2016,08,14,01,31,19.60
2016,08,14,01,32,19.60
2016,08,14,01,33,19.60
2016,08,14,01,34,19.60
2016,08,14,01,35,19.60
2016,08,14,01,36,19.60
2016,08,14,01,37,19.60
2016,08,14,01,38,19.60
2016,08,14,01,39,19.60
2016,08,14,01,40,19.60
2016,08,14,01,41,19.60
2016,08,14,01,42,19.50
2016,08,14,01,43,19.50
2016,08,14,01,44,19.40
2016,08,14,01,45,19.40
2016,08,14,01,46,19.30
2016,08,14,01,47,19.30
2016,08,14,01,48,19.20
2016,08,14,01,49,19.20
2016,08,14,01,50,19.10
2016,08,14,01,51,19.10
2016,08,14,01,52,19.00
2016,08,14,01,53,19.00
2016,08,14,01,54,18.90
2016,08,14,01,55,18.80
2016,08,14,01,56,18.80
2016,08,14,01,57,18.80
2016,08,14,01,58,18.80
2016,08,14,01,59,18.70
2016,08,14,02,00,18.70
2016,08,14,02,01,18.70
2016,08,14,02,02,18.70
2016,08,14,02,03,18.70
2016,08,14,02,04,18.70
2016,08,14,02,05,18.70
2016,08,14,02,06,18.80
2016,08,14,02,07,18.80
2016,08,14,02,08,18.80
2016,08,14,02,09,18.80
2016,08,14,02,10,18.80
2016,08,14,02,11,18.80
2016,08,14,02,12,18.80
2016,08,14,02,13,18.80
2016,08,14,02,14,18.80
2016,08,14,02,15,18.90
2016,08,14,02,16,18.80
2016,08,14,02,17,18.80
2016,08,14,02,18,18.80
2016,08,14,02,19,18.80
2016,08,14,02,20,18.80
2016,08,14,02,21,18.80
2016,08,14,02,22,18.80
2016,08,14,02,23,18.70
2016,08,14,02,24,18.60
2016,08,14,02,25,18.60
2016,08,14,02,26,18.50
2016,08,14,02,27,18.50
2016,08,14,02,28,18.40
2016,08,14,02,29,18.30
2016,08,14,02,30,18.30
2016,08,14,02,31,18.20
2016,08,14,02,32,18.20
2016,08,14,02,33,18.20
2016,08,14,02,34,18.10
2016,08,14,02,35,18.10
2016,08,14,02,36,18.00
2016,08,14,02,37,18.00
2016,08,14,02,38,18.00
2016,08,14,02,39,18.00
2016,08,14,02,40,17.90
2016,08,14,02,41,17.90
2016,08,14,02,42,17.90
2016,08,14,02,43,17.90
2016,08,14,02,44,17.90
2016,08,14,02,45,17.90
2016,08,14,02,46,17.90
2016,08,14,02,47,17.90
2016,08,14,02,48,17.90
2016,08,14,02,49,17.90
2016,08,14,02,50,17.90
2016,08,14,02,51,17.90
2016,08,14,02,52,17.90
2016,08,14,02,53,17.90
2016,08,14,02,54,17.90
2016,08,14,02,55,17.90
2016,08,14,02,56,17.90
2016,08,14,02,57,17.90
2016,08,14,02,58,17.90
2016,08,14,02,59,17.90
2016,08,14,03,00,17.90
2016,08,14,03,01,17.90
2016,08,14,03,02,17.90
2016,08,14,03,03,17.90
2016,08,14,03,04,17.90
2016,08,14,03,05,17.90
2016,08,14,03,06,18.00
2016,08,14,03,07,18.00
2016,08,14,03,08,18.00
2016,08,14,03,09,18.00
2016,08,14,03,10,18.00
2016,08,14,03,11,17.90
2016,08,14,03,12,17.90
2016,08,14,03,13,17.90
2016,08,14,03,14,17.90
2016,08,14,03,15,17.90
2016,08,14,03,16,17.90
2016,08,14,03,17,17.90
2016,08,14,03,18,17.90
2016,08,14,03,19,18.00
2016,08,14,03,20,18.00
2016,08,14,03,21,18.00
2016,08,14,03,22,18.00
2016,08,14,03,23,18.00
2016,08,14,03,24,18.00
2016,08,14,03,25,18.10
2016,08,14,03,26,18.10
2016,08,14,03,27,18.10
2016,08,14,03,28,18.10
2016,08,14,03,29,18.20
2016,08,14,03,30,18.30
2016,08,14,03,31,18.30
2016,08,14,03,32,18.30
2016,08,14,03,33,18.30
2016,08,14,03,34,18.30
2016,08,14,03,35,18.30
2016,08,14,03,36,18.30
2016,08,14,03,37,18.30
2016,08,14,03,38,18.30
2016,08,14,03,39,18.40
2016,08,14,03,40,18.40
2016,08,14,03,41,18.40
2016,08,14,03,42,18.40
2016,08,14,03,43,18.50
2016,08,14,03,44,18.50
2016,08,14,03,45,18.50
2016,08,14,03,46,18.50
2016,08,14,03,47,18.50
2016,08,14,03,48,18.50
2016,08,14,03,49,18.50
2016,08,14,03,50,18.60
2016,08,14,03,51,18.60
2016,08,14,03,52,18.50
2016,08,14,03,53,18.50
2016,08,14,03,54,18.50
2016,08,14,03,55,18.50
2016,08,14,03,56,18.50
2016,08,14,03,57,18.50
2016,08,14,03,58,18.50
2016,08,14,03,59,18.40
2016,08,14,04,00,18.40
2016,08,14,04,01,18.40
2016,08,14,04,02,18.40
2016,08,14,04,03,18.40
2016,08,14,04,04,18.40
2016,08,14,04,05,18.40
2016,08,14,04,06,18.40
2016,08,14,04,07,18.40
2016,08,14,04,08,18.40
2016,08,14,04,09,18.40
2016,08,14,04,10,18.40
2016,08,14,04,11,18.40
2016,08,14,04,12,18.40
2016,08,14,04,13,18.40
2016,08,14,04,14,18.40
2016,08,14,04,15,18.40
2016,08,14,04,16,18.40
2016,08,14,04,17,18.40
2016,08,14,04,18,18.40
2016,08,14,04,19,18.40
2016,08,14,04,20,18.50
2016,08,14,04,21,18.50
2016,08,14,04,22,18.50
2016,08,14,04,23,18.50
2016,08,14,04,24,18.50
2016,08,14,04,25,18.50
2016,08,14,04,26,18.50
2016,08,14,04,27,18.50
2016,08,14,04,28,18.50
2016,08,14,04,29,18.50
2016,08,14,04,30,18.50
2016,08,14,04,31,18.50
2016,08,14,04,32,18.50
2016,08,14,04,33,18.50
2016,08,14,04,34,18.50
2016,08,14,04,35,18.50
2016,08,14,04,36,18.50
2016,08,14,04,37,18.60
2016,08,14,04,38,18.60
2016,08,14,04,39,18.60
2016,08,14,04,40,18.60
2016,08,14,04,41,18.60
2016,08,14,04,42,18.60
2016,08,14,04,43,18.60
2016,08,14,04,44,18.60
2016,08,14,04,45,18.60
2016,08,14,04,46,18.60
2016,08,14,04,47,18.60
2016,08,14,04,48,18.60
2016,08,14,04,49,18.60
2016,08,14,04,50,18.60
2016,08,14,04,51,18.60
2016,08,14,04,52,18.60
2016,08,14,04,53,18.60
2016,08,14,04,54,18.60
2016,08,14,04,55,18.70
2016,08,14,04,56,18.70
2016,08,14,04,57,18.70
2016,08,14,04,58,18.70
2016,08,14,04,59,18.60
2016,08,14,05,00,18.60
2016,08,14,05,01,18.60
2016,08,14,05,02,18.60
2016,08,14,05,03,18.60
2016,08,14,05,04,18.60
2016,08,14,05,05,18.60
2016,08,14,05,06,18.60
2016,08,14,05,07,18.60
2016,08,14,05,08,18.60
2016,08,14,05,09,18.60
2016,08,14,05,10,18.50
2016,08,14,05,11,18.50
2016,08,14,05,12,18.40
2016,08,14,05,13,18.40
2016,08,14,05,14,18.40
2016,08,14,05,15,18.40
2016,08,14,05,16,18.30
2016,08,14,05,17,18.30
2016,08,14,05,18,18.40
2016,08,14,05,19,18.40
2016,08,14,05,20,18.40
2016,08,14,05,21,18.40
2016,08,14,05,22,18.40
2016,08,14,05,23,18.40
2016,08,14,05,24,18.40
2016,08,14,05,25,18.40
2016,08,14,05,26,18.40
2016,08,14,05,27,18.40
2016,08,14,05,28,18.40
2016,08,14,05,29,18.40
2016,08,14,05,30,18.40
2016,08,14,05,31,18.40
2016,08,14,05,32,18.40
2016,08,14,05,33,18.40
2016,08,14,05,34,18.40
2016,08,14,05,35,18.40
2016,08,14,05,36,18.40
2016,08,14,05,37,18.40
2016,08,14,05,38,18.50
2016,08,14,05,39,18.50
2016,08,14,05,40,18.50
2016,08,14,05,41,18.50
2016,08,14,05,42,18.50
2016,08,14,05,43,18.50
2016,08,14,05,44,18.50
2016,08,14,05,45,18.50
2016,08,14,05,46,18.50
2016,08,14,05,47,18.50
2016,08,14,05,48,18.50
2016,08,14,05,49,18.50
2016,08,14,05,50,18.50
2016,08,14,05,51,18.40
2016,08,14,05,52,18.40
2016,08,14,05,53,18.50
2016,08,14,05,54,18.50
2016,08,14,05,55,18.50
2016,08,14,05,56,18.50
2016,08,14,05,57,18.50
2016,08,14,05,58,18.50
2016,08,14,05,59,18.50
2016,08,14,06,00,18.50
2016,08,14,06,01,18.50
2016,08,14,06,02,18.50
2016,08,14,06,03,18.50
2016,08,14,06,04,18.50
2016,08,14,06,05,18.50
2016,08,14,06,06,18.40
2016,08,14,06,07,18.40
2016,08,14,06,08,18.40
2016,08,14,06,09,18.40
2016,08,14,06,10,18.40
2016,08,14,06,11,18.50
2016,08,14,06,12,18.50
2016,08,14,06,13,18.50
2016,08,14,06,14,18.50
2016,08,14,06,15,18.50
2016,08,14,06,16,18.50
2016,08,14,06,17,18.50
2016,08,14,06,18,18.50
2016,08,14,06,19,18.50
2016,08,14,06,20,18.50
2016,08,14,06,21,18.50
2016,08,14,06,22,18.50
2016,08,14,06,23,18.50
2016,08,14,06,24,18.50
2016,08,14,06,25,18.50
2016,08,14,06,26,18.50
2016,08,14,06,27,18.50
2016,08,14,06,28,18.60
2016,08,14,06,29,18.60
2016,08,14,06,30,18.60
2016,08,14,06,31,18.60
2016,08,14,06,32,18.50
2016,08,14,06,33,18.50
2016,08,14,06,34,18.50
2016,08,14,06,35,18.50
2016,08,14,06,36,18.40
2016,08,14,06,37,18.40
2016,08,14,06,38,18.40
2016,08,14,06,39,18.40
2016,08,14,06,40,18.30
2016,08,14,06,41,18.30
2016,08,14,06,42,18.30
2016,08,14,06,43,18.30
2016,08,14,06,44,18.30
2016,08,14,06,45,18.30
2016,08,14,06,46,18.30
2016,08,14,06,47,18.20
2016,08,14,06,48,18.30
2016,08,14,06,49,18.30
2016,08,14,06,50,18.30
2016,08,14,06,51,18.30
2016,08,14,06,52,18.40
2016,08,14,06,53,18.40
2016,08,14,06,54,18.40
2016,08,14,06,55,18.50
2016,08,14,06,56,18.50
2016,08,14,06,57,18.60
2016,08,14,06,58,18.60
2016,08,14,06,59,18.60
2016,08,14,07,00,18.70
2016,08,14,07,01,18.70
2016,08,14,07,02,18.70
2016,08,14,07,03,18.70
2016,08,14,07,04,18.70
2016,08,14,07,05,18.70
2016,08,14,07,06,18.70
2016,08,14,07,07,18.70
2016,08,14,07,08,18.70
2016,08,14,07,09,18.70
2016,08,14,07,10,18.70
2016,08,14,07,11,18.70
2016,08,14,07,12,18.70
2016,08,14,07,13,18.70
2016,08,14,07,14,18.70
2016,08,14,07,15,18.70
2016,08,14,07,16,18.70
2016,08,14,07,17,18.70
2016,08,14,07,18,18.70
2016,08,14,07,19,18.70
2016,08,14,07,20,18.70
2016,08,14,07,21,18.70
2016,08,14,07,22,18.70
2016,08,14,07,23,18.70
2016,08,14,07,24,18.70
2016,08,14,07,25,18.70
2016,08,14,07,26,18.70
2016,08,14,07,27,18.70
2016,08,14,07,28,18.70
2016,08,14,07,29,18.70
2016,08,14,07,30,18.70
2016,08,14,07,31,18.70
2016,08,14,07,32,18.70
2016,08,14,07,33,18.70
2016,08,14,07,34,18.70
2016,08,14,07,35,18.80
2016,08,14,07,36,18.80
2016,08,14,07,37,18.80
2016,08,14,07,38,18.80
2016,08,14,07,39,18.90
2016,08,14,07,40,18.90
2016,08,14,07,41,18.90
2016,08,14,07,42,18.90
2016,08,14,07,43,18.90
2016,08,14,07,44,19.00
2016,08,14,07,45,19.00
2016,08,14,07,46,19.00
2016,08,14,07,47,19.10
2016,08,14,07,48,19.10
2016,08,14,07,49,19.10
2016,08,14,07,50,19.20
2016,08,14,07,51,19.20
2016,08,14,07,52,19.20
2016,08,14,07,53,19.20
2016,08,14,07,54,19.20
2016,08,14,07,55,19.30
2016,08,14,07,56,19.30
2016,08,14,07,57,19.30
2016,08,14,07,58,19.40
2016,08,14,07,59,19.40
2016,08,14,08,00,19.40
2016,08,14,08,01,19.40
2016,08,14,08,02,19.40
2016,08,14,08,03,19.40
2016,08,14,08,04,19.40
2016,08,14,08,05,19.40
2016,08,14,08,06,19.40
2016,08,14,08,07,19.40
2016,08,14,08,08,19.40
2016,08,14,08,09,19.40
2016,08,14,08,10,19.40
2016,08,14,08,11,19.40
2016,08,14,08,12,19.40
2016,08,14,08,13,19.40
2016,08,14,08,14,19.50
2016,08,14,08,15,19.50
2016,08,14,08,16,19.40
2016,08,14,08,17,19.40
2016,08,14,08,18,19.40
2016,08,14,08,19,19.40
2016,08,14,08,20,19.50
2016,08,14,08,21,19.50
2016,08,14,08,22,19.50
2016,08,14,08,23,19.50
2016,08,14,08,24,19.60
2016,08,14,08,25,19.60
2016,08,14,08,26,19.60
2016,08,14,08,27,19.60
2016,08,14,08,28,19.60
2016,08,14,08,29,19.60
2016,08,14,08,30,19.60
2016,08,14,08,31,19.60
2016,08,14,08,32,19.60
2016,08,14,08,33,19.60
2016,08,14,08,34,19.60
2016,08,14,08,35,19.60
2016,08,14,08,36,19.60
2016,08,14,08,37,19.70
2016,08,14,08,38,19.70
2016,08,14,08,39,19.70
2016,08,14,08,40,19.70
2016,08,14,08,41,19.70
2016,08,14,08,42,19.70
2016,08,14,08,43,19.70
2016,08,14,08,44,19.70
2016,08,14,08,45,19.70
2016,08,14,08,46,19.70
2016,08,14,08,47,19.70
2016,08,14,08,48,19.70
2016,08,14,08,49,19.70
2016,08,14,08,50,19.70
2016,08,14,08,51,19.80
2016,08,14,08,52,19.80
2016,08,14,08,53,19.80
2016,08,14,08,54,19.80
2016,08,14,08,55,19.80
2016,08,14,08,56,19.80
2016,08,14,08,57,19.80
2016,08,14,08,58,19.80
2016,08,14,08,59,19.80
2016,08,14,09,00,19.80
2016,08,14,09,01,19.80
2016,08,14,09,02,19.80
2016,08,14,09,03,19.80
2016,08,14,09,04,19.80
2016,08,14,09,05,19.80
2016,08,14,09,06,19.80
2016,08,14,09,07,19.90
2016,08,14,09,08,19.90
2016,08,14,09,09,19.90
2016,08,14,09,10,20.00
2016,08,14,09,11,20.00
2016,08,14,09,12,20.00
2016,08,14,09,13,20.10
2016,08,14,09,14,20.10
2016,08,14,09,15,20.10
2016,08,14,09,16,20.20
2016,08,14,09,17,20.20
2016,08,14,09,18,20.20
2016,08,14,09,19,20.20
2016,08,14,09,20,20.30
2016,08,14,09,21,20.30
2016,08,14,09,22,20.30
2016,08,14,09,23,20.40
2016,08,14,09,24,20.40
2016,08,14,09,25,20.40
2016,08,14,09,26,20.40
2016,08,14,09,27,20.50
2016,08,14,09,28,20.50
2016,08,14,09,29,20.60
2016,08,14,09,30,20.60
2016,08,14,09,31,20.60
2016,08,14,09,32,20.70
2016,08,14,09,33,20.70
2016,08,14,09,34,20.70
2016,08,14,09,35,20.70
2016,08,14,09,36,20.70
2016,08,14,09,37,20.80
2016,08,14,09,38,20.80
2016,08,14,09,39,20.80
2016,08,14,09,40,20.80
2016,08,14,09,41,20.80
2016,08,14,09,42,20.80
2016,08,14,09,43,20.80
2016,08,14,09,44,20.80
2016,08,14,09,45,20.80
2016,08,14,09,46,20.80
2016,08,14,09,47,20.80
2016,08,14,09,48,20.80
2016,08,14,09,49,20.80
2016,08,14,09,50,20.80
2016,08,14,09,51,20.80
2016,08,14,09,52,20.80
2016,08,14,09,53,20.80
2016,08,14,09,54,20.80
2016,08,14,09,55,20.80
2016,08,14,09,56,20.80
2016,08,14,09,57,20.80
2016,08,14,09,58,20.80
2016,08,14,09,59,20.90
2016,08,14,10,00,20.90
2016,08,14,10,01,20.90
2016,08,14,10,02,20.90
2016,08,14,10,03,20.90
2016,08,14,10,04,21.00
2016,08,14,10,05,21.00
2016,08,14,10,06,21.10
2016,08,14,10,07,21.10
2016,08,14,10,08,21.20
2016,08,14,10,09,21.20
2016,08,14,10,10,21.20
2016,08,14,10,11,21.30
2016,08,14,10,12,21.30
2016,08,14,10,13,21.30
2016,08,14,10,14,21.40
2016,08,14,10,15,21.40
2016,08,14,10,16,21.40
2016,08,14,10,17,21.50
2016,08,14,10,18,21.50
2016,08,14,10,19,21.60
2016,08,14,10,20,21.60
2016,08,14,10,21,21.70
2016,08,14,10,22,21.70
2016,08,14,10,23,21.70
2016,08,14,10,24,21.80
2016,08,14,10,25,21.70
2016,08,14,10,26,21.70
2016,08,14,10,27,21.70
2016,08,14,10,28,21.60
2016,08,14,10,29,21.60
2016,08,14,10,30,21.60
2016,08,14,10,31,21.60
2016,08,14,10,32,21.60
2016,08,14,10,33,21.70
2016,08,14,10,34,21.70
2016,08,14,10,35,21.80
2016,08,14,10,36,21.80
2016,08,14,10,37,21.90
2016,08,14,10,38,21.90
2016,08,14,10,39,21.90
2016,08,14,10,40,22.00
2016,08,14,10,41,22.00
2016,08,14,10,42,22.10
2016,08,14,10,43,22.10
2016,08,14,10,44,22.10
2016,08,14,10,45,22.10
2016,08,14,10,46,22.10
2016,08,14,10,47,22.10
2016,08,14,10,48,22.20
2016,08,14,10,49,22.20
2016,08,14,10,50,22.20
2016,08,14,10,51,22.20
2016,08,14,10,52,22.20
2016,08,14,10,53,22.20
2016,08,14,10,54,22.20
2016,08,14,10,55,22.20
2016,08,14,10,56,22.20
2016,08,14,10,57,22.20
2016,08,14,10,58,22.30
2016,08,14,10,59,22.30
2016,08,14,11,00,22.20
2016,08,14,11,01,22.20
2016,08,14,11,02,22.10
2016,08,14,11,03,22.10
2016,08,14,11,04,22.10
2016,08,14,11,05,22.10
2016,08,14,11,06,22.10
2016,08,14,11,07,22.00
2016,08,14,11,08,22.10
2016,08,14,11,09,22.10
2016,08,14,11,10,22.20
2016,08,14,11,11,22.30
2016,08,14,11,12,22.30
2016,08,14,11,13,22.40
2016,08,14,11,14,22.40
2016,08,14,11,15,22.40
2016,08,14,11,16,22.50
2016,08,14,11,17,22.50
2016,08,14,11,18,22.60
2016,08,14,11,19,22.70
2016,08,14,11,20,22.70
2016,08,14,11,21,22.80
2016,08,14,11,22,22.80
2016,08,14,11,23,22.80
2016,08,14,11,24,22.90
2016,08,14,11,25,22.90
2016,08,14,11,26,22.90
2016,08,14,11,27,23.00
2016,08,14,11,28,23.00
2016,08,14,11,29,23.00
2016,08,14,11,30,23.00
2016,08,14,11,31,23.10
2016,08,14,11,32,23.10
2016,08,14,11,33,23.10
2016,08,14,11,34,23.20
2016,08,14,11,35,23.20
2016,08,14,11,36,23.20
2016,08,14,11,37,23.30
2016,08,14,11,38,23.30
2016,08,14,11,39,23.30
2016,08,14,11,40,23.30
2016,08,14,11,41,23.30
2016,08,14,11,42,23.20
2016,08,14,11,43,23.20
2016,08,14,11,44,23.10
2016,08,14,11,45,23.00
2016,08,14,11,46,22.90
2016,08,14,11,47,22.90
2016,08,14,11,48,22.80
2016,08,14,11,49,22.80
2016,08,14,11,50,22.80
2016,08,14,11,51,22.80
2016,08,14,11,52,22.80
2016,08,14,11,53,22.80
2016,08,14,11,54,22.80
2016,08,14,11,55,22.90
2016,08,14,11,56,22.90
2016,08,14,11,57,23.00
2016,08,14,11,58,23.10
2016,08,14,11,59,23.00
2016,08,14,12,00,23.00
2016,08,14,12,01,22.90
2016,08,14,12,02,22.90
2016,08,14,12,03,23.00
2016,08,14,12,04,23.00
2016,08,14,12,05,23.10
2016,08,14,12,06,23.10
2016,08,14,12,07,23.10
2016,08,14,12,08,23.10
2016,08,14,12,09,23.10
2016,08,14,12,10,23.20
2016,08,14,12,11,23.20
2016,08,14,12,12,23.20
2016,08,14,12,13,23.20
2016,08,14,12,14,23.20
2016,08,14,12,15,23.20
2016,08,14,12,16,23.20
2016,08,14,12,17,23.20
2016,08,14,12,18,23.20
2016,08,14,12,19,23.20
2016,08,14,12,20,23.20
2016,08,14,12,21,23.30
2016,08,14,12,22,23.30
2016,08,14,12,23,23.20
2016,08,14,12,24,23.20
2016,08,14,12,25,23.20
2016,08,14,12,26,23.20
2016,08,14,12,27,23.20
2016,08,14,12,28,23.10
2016,08,14,12,29,23.10
2016,08,14,12,30,23.10
2016,08,14,12,31,23.10
2016,08,14,12,32,23.10
2016,08,14,12,33,23.10
2016,08,14,12,34,23.10
2016,08,14,12,35,23.20
2016,08,14,12,36,23.30
2016,08,14,12,37,23.30
2016,08,14,12,38,23.40
2016,08,14,12,39,23.50
2016,08,14,12,40,23.50
2016,08,14,12,41,23.50
2016,08,14,12,42,23.50
2016,08,14,12,43,23.60
2016,08,14,12,44,23.60
2016,08,14,12,45,23.60
2016,08,14,12,46,23.60
2016,08,14,12,47,23.60
2016,08,14,12,48,23.50
2016,08,14,12,49,23.50
2016,08,14,12,50,23.50
2016,08,14,12,51,23.50
2016,08,14,12,52,23.60
2016,08,14,12,53,23.60
2016,08,14,12,54,23.70
2016,08,14,12,55,23.70
2016,08,14,12,56,23.80
2016,08,14,12,57,23.90
2016,08,14,12,58,23.90
2016,08,14,12,59,23.90
2016,08,14,13,00,23.90
2016,08,14,13,01,23.90
2016,08,14,13,02,23.90
2016,08,14,13,03,23.90
2016,08,14,13,04,24.00
2016,08,14,13,05,24.00
2016,08,14,13,06,24.10
2016,08,14,13,07,24.10
2016,08,14,13,08,24.10
2016,08,14,13,09,24.10
2016,08,14,13,10,24.10
2016,08,14,13,11,24.00
2016,08,14,13,12,24.00
2016,08,14,13,13,24.00
2016,08,14,13,14,24.10
2016,08,14,13,15,24.10
2016,08,14,13,16,24.20
2016,08,14,13,17,24.20
2016,08,14,13,18,24.20
2016,08,14,13,19,24.20
2016,08,14,13,20,24.20
2016,08,14,13,21,24.20
2016,08,14,13,22,24.20
2016,08,14,13,23,24.30
2016,08,14,13,24,24.30
2016,08,14,13,25,24.30
2016,08,14,13,26,24.30
2016,08,14,13,27,24.40
2016,08,14,13,28,24.40
2016,08,14,13,29,24.50
2016,08,14,13,30,24.50
2016,08,14,13,31,24.60
2016,08,14,13,32,24.60
2016,08,14,13,33,24.80
2016,08,14,13,34,24.90
2016,08,14,13,35,24.90
2016,08,14,13,36,24.90
2016,08,14,13,37,25.00
2016,08,14,13,38,25.00
2016,08,14,13,39,25.10
2016,08,14,13,40,25.10
2016,08,14,13,41,25.20
2016,08,14,13,42,25.20
2016,08,14,13,43,25.10
2016,08,14,13,44,25.10
2016,08,14,13,45,25.10
2016,08,14,13,46,25.10
2016,08,14,13,47,25.10
2016,08,14,13,48,25.20
2016,08,14,13,49,25.20
2016,08,14,13,50,25.30
2016,08,14,13,51,25.30
2016,08,14,13,52,25.40
2016,08,14,13,53,25.40
2016,08,14,13,54,25.40
2016,08,14,13,55,25.40
2016,08,14,13,56,25.50
2016,08,14,13,57,25.50
2016,08,14,13,58,25.60
2016,08,14,13,59,25.60
2016,08,14,14,00,25.60
2016,08,14,14,01,25.60
2016,08,14,14,02,25.60
2016,08,14,14,03,25.60
2016,08,14,14,04,25.60
2016,08,14,14,05,25.50
2016,08,14,14,06,25.50
2016,08,14,14,07,25.50
2016,08,14,14,08,25.50
2016,08,14,14,09,25.50
2016,08,14,14,10,25.40
2016,08,14,14,11,25.40
2016,08,14,14,12,25.30
2016,08,14,14,13,25.30
2016,08,14,14,14,25.30
2016,08,14,14,15,25.40
2016,08,14,14,16,25.50
2016,08,14,14,17,25.60
2016,08,14,14,18,25.70
2016,08,14,14,19,25.70
2016,08,14,14,20,25.70
2016,08,14,14,21,25.70
2016,08,14,14,22,25.80
2016,08,14,14,23,25.80
2016,08,14,14,24,25.90
2016,08,14,14,25,25.80
2016,08,14,14,26,25.80
2016,08,14,14,27,25.80
2016,08,14,14,28,25.80
2016,08,14,14,29,25.70
2016,08,14,14,30,25.70
2016,08,14,14,31,25.70
2016,08,14,14,32,25.60
2016,08,14,14,33,25.60
2016,08,14,14,34,25.70
2016,08,14,14,35,25.70
2016,08,14,14,36,25.80
2016,08,14,14,37,25.80
2016,08,14,14,38,25.80
2016,08,14,14,39,25.80
2016,08,14,14,40,25.70
2016,08,14,14,41,25.60
2016,08,14,14,42,25.50
2016,08,14,14,43,25.40
2016,08,14,14,44,25.30
2016,08,14,14,45,25.20
2016,08,14,14,46,25.20
2016,08,14,14,47,25.20
2016,08,14,14,48,25.20
2016,08,14,14,49,25.30
2016,08,14,14,50,25.40
2016,08,14,14,51,25.40
2016,08,14,14,52,25.50
2016,08,14,14,53,25.60
2016,08,14,14,54,25.70
2016,08,14,14,55,25.90
2016,08,14,14,56,26.00
2016,08,14,14,57,26.10
2016,08,14,14,58,26.20
2016,08,14,14,59,26.20
2016,08,14,15,00,26.20
2016,08,14,15,01,26.20
2016,08,14,15,02,26.30
2016,08,14,15,03,26.30
2016,08,14,15,04,26.30
2016,08,14,15,05,26.30
2016,08,14,15,06,26.30
2016,08,14,15,07,26.30
2016,08,14,15,08,26.30
2016,08,14,15,09,26.30
2016,08,14,15,10,26.40
2016,08,14,15,11,26.40
2016,08,14,15,12,26.50
2016,08,14,15,13,26.50
2016,08,14,15,14,26.50
2016,08,14,15,15,26.50
2016,08,14,15,16,26.60
2016,08,14,15,17,26.60
2016,08,14,15,18,26.70
2016,08,14,15,19,26.70
2016,08,14,15,20,26.70
2016,08,14,15,21,26.60
2016,08,14,15,22,26.60
2016,08,14,15,23,26.60
2016,08,14,15,24,26.60
2016,08,14,15,25,26.70
2016,08,14,15,26,26.70
2016,08,14,15,27,26.70
2016,08,14,15,28,26.60
2016,08,14,15,29,26.50
2016,08,14,15,30,26.50
2016,08,14,15,31,26.40
2016,08,14,15,32,26.40
2016,08,14,15,33,26.30
2016,08,14,15,34,26.40
2016,08,14,15,35,26.40
2016,08,14,15,36,26.50
2016,08,14,15,37,26.60
2016,08,14,15,38,26.70
2016,08,14,15,39,26.70
2016,08,14,15,40,26.80
2016,08,14,15,41,26.80
2016,08,14,15,42,26.80
2016,08,14,15,43,26.70
2016,08,14,15,44,26.50
2016,08,14,15,45,26.20
2016,08,14,15,46,26.00
2016,08,14,15,47,25.70
2016,08,14,15,48,25.60
2016,08,14,15,49,25.40
2016,08,14,15,50,25.40
2016,08,14,15,51,25.40
2016,08,14,15,52,25.50
2016,08,14,15,53,25.60
2016,08,14,15,54,25.70
2016,08,14,15,55,25.90
2016,08,14,15,56,26.10
2016,08,14,15,57,26.30
2016,08,14,15,58,26.50
2016,08,14,15,59,26.70
2016,08,14,16,00,26.90
2016,08,14,16,01,27.00
2016,08,14,16,02,27.10
2016,08,14,16,03,27.10
2016,08,14,16,04,27.00
2016,08,14,16,05,26.80
2016,08,14,16,06,26.70
2016,08,14,16,07,26.60
2016,08,14,16,08,26.50
2016,08,14,16,09,26.40
2016,08,14,16,10,26.40
2016,08,14,16,11,26.40
2016,08,14,16,12,26.40
2016,08,14,16,13,26.50
2016,08,14,16,14,26.50
2016,08,14,16,15,26.60
2016,08,14,16,16,26.60
2016,08,14,16,17,26.50
2016,08,14,16,18,26.40
2016,08,14,16,19,26.30
2016,08,14,16,20,26.30
2016,08,14,16,21,26.30
2016,08,14,16,22,26.40
2016,08,14,16,23,26.50
2016,08,14,16,24,26.70
2016,08,14,16,25,26.80
2016,08,14,16,26,26.90
2016,08,14,16,27,26.90
2016,08,14,16,28,27.00
2016,08,14,16,29,27.00
2016,08,14,16,30,27.10
2016,08,14,16,31,27.10
2016,08,14,16,32,27.10
2016,08,14,16,33,27.10
2016,08,14,16,34,27.10
2016,08,14,16,35,27.10
2016,08,14,16,36,27.10
2016,08,14,16,37,27.10
2016,08,14,16,38,27.10
2016,08,14,16,39,27.10
2016,08,14,16,40,27.10
2016,08,14,16,41,27.10
2016,08,14,16,42,27.10
2016,08,14,16,43,27.10
2016,08,14,16,44,27.20
2016,08,14,16,45,27.20
2016,08,14,16,46,27.20
2016,08,14,16,47,27.20
2016,08,14,16,48,27.30
2016,08,14,16,49,27.40
2016,08,14,16,50,27.40
2016,08,14,16,51,27.50
2016,08,14,16,52,27.50
2016,08,14,16,53,27.50
2016,08,14,16,54,27.50
2016,08,14,16,55,27.50
2016,08,14,16,56,27.40
2016,08,14,16,57,27.40
2016,08,14,16,58,27.30
2016,08,14,16,59,27.30
2016,08,14,17,00,27.40
2016,08,14,17,01,27.40
2016,08,14,17,02,27.40
2016,08,14,17,03,27.40
2016,08,14,17,04,27.50
2016,08,14,17,05,27.50
2016,08,14,17,06,27.60
2016,08,14,17,07,27.70
2016,08,14,17,08,27.80
2016,08,14,17,09,27.90
2016,08,14,17,10,27.90
2016,08,14,17,11,27.90
2016,08,14,17,12,27.90
2016,08,14,17,13,27.90
2016,08,14,17,14,27.80
2016,08,14,17,15,27.80
2016,08,14,17,16,27.70
2016,08,14,17,17,27.70
2016,08,14,17,18,27.70
2016,08,14,17,19,27.70